GALAXY 19 (G-19)

Last updated on Tue Sep 16 2025 00:02:46 GMT+0000 (Coordinated Universal Time)

1 33376U 08045A 25258.56533587 -.00000156 00000+0 00000+0 0 9994 2 33376 0.0380 260.6956 0002801 280.1108 280.4879 1.00271537 62158
UTC large
Height (km)
Speed (km/s)
/
Latitude / Longitude
Inclination (degrees)
Orbital Period (minutes)
Azimuth
Elevation
Range (km)
Doppler Factor

Next 0 passes for location: London (51.5072 / 0.1276)

Sorry there are no passes over London.